Eagle River, WI

7:27 AM CDT on August 20, 2017 (GMT -0500)
Eagle River Union

Weather History for KEGV - February, 2012

Change the Weather History Date:

Tuesday, February 21, 2012

  Actual Average Record
Temperature  
Mean Temperature 31 °F -  
Max Temperature 32 °F 29 °F 53 °F (2017)
Min Temperature 30 °F 8 °F -23 °F (2008)
Degree Days  
Heating Degree Days 34    
Moisture  
Dew Point 28 °F    
Average Humidity 89    
Maximum Humidity 100    
Minimum Humidity 75    
Precipitation  
Precipitation 0.04 in - - ()
Sea Level Pressure  
Sea Level Pressure 29.48 in    
Wind  
Wind Speed 8 mph (South)    
Max Wind Speed 22 mph    
Max Gust Speed 31 mph    
Visibility 6 miles    
Events Snow    
Averages and records for this station are not official NWS values.
T = Trace of Precipitation, MM = Missing Value Source: NWS Daily Summary

Daily Weather History Graph

Daily Weather History Graph

Search for Another Location

Airport or City:

Trip Planner

Search our weather history database for the weather conditions in past years. The results will help you decide how hot, cold, wet, or windy it might be!

Date:

Astronomy

Feb. 21, 2012 Rise Set
Actual Time 6:50 AM CST 5:31 PM CST
Civil Twilight 6:20 AM CST 6:01 PM CST
Nautical Twilight 5:45 AM CST 6:36 PM CST
Astronomical Twilight 5:11 AM CST 7:11 PM CST
Moon 6:17 AM CST (2/21) 5:41 PM CST (2/21)
Length of Visible Light 11h 41m
Length of Day
10h 40m
Waning Crescent, 0% of the Moon is Illuminated
Feb 21
Waning Crescent
Feb 21
New
Feb 29
First Quarter
Mar 8
Full
Mar 14
Last Quarter

Hourly Weather History & Observations

Time (CST) Temp. Windchill Dew Point Humidity Pressure Visibility Wind Dir Wind Speed Gust Speed Precip Events Conditions
12:15 AM 30.2 °F 24.3 °F 23.0 °F 75% 29.78 in 10.0 mi SE 5.8 mph - N/A   Overcast
12:35 AM 30.2 °F 24.3 °F 23.0 °F 75% 29.76 in 10.0 mi SSE 5.8 mph - N/A   Overcast
12:55 AM 30.2 °F 23.4 °F 23.0 °F 75% 29.75 in 10.0 mi SSE 6.9 mph - N/A   Overcast
1:15 AM 30.2 °F 23.4 °F 23.0 °F 75% 29.73 in 10.0 mi South 6.9 mph - N/A   Overcast
1:35 AM 30.2 °F 23.4 °F 23.0 °F 75% 29.72 in 10.0 mi SSE 6.9 mph - N/A   Overcast
1:55 AM 30.2 °F 23.4 °F 23.0 °F 75% 29.70 in 10.0 mi South 6.9 mph - N/A   Overcast
2:15 AM 30.2 °F 22.6 °F 23.0 °F 75% 29.68 in 10.0 mi SSE 8.1 mph - N/A   Overcast
2:35 AM 30.2 °F 23.4 °F 23.0 °F 75% 29.67 in 10.0 mi South 6.9 mph - N/A   Overcast
2:55 AM 30.2 °F 23.4 °F 23.0 °F 75% 29.64 in 10.0 mi SSE 6.9 mph - N/A   Overcast
3:15 AM 30.2 °F 21.9 °F 23.0 °F 75% 29.62 in 10.0 mi SSE 9.2 mph 16.1 mph N/A   Overcast
3:35 AM 30.2 °F 22.6 °F 24.8 °F 80% 29.61 in 10.0 mi SSE 8.1 mph - N/A   Overcast
3:55 AM 30.2 °F 23.4 °F 24.8 °F 80% 29.60 in 10.0 mi SSE 6.9 mph - N/A   Overcast
4:15 AM 30.2 °F 21.9 °F 24.8 °F 80% 29.60 in 10.0 mi SSE 9.2 mph - N/A   Overcast
4:35 AM 30.2 °F 22.6 °F 24.8 °F 80% 29.59 in 7.0 mi SSE 8.1 mph - N/A   Overcast
4:55 AM 30.2 °F 23.4 °F 24.8 °F 80% 29.57 in 10.0 mi South 6.9 mph - N/A   Overcast
5:15 AM 30.2 °F 22.6 °F 24.8 °F 80% 29.55 in 10.0 mi SSE 8.1 mph - N/A   Overcast
5:35 AM 30.2 °F 23.4 °F 24.8 °F 80% 29.54 in 10.0 mi SSE 6.9 mph - N/A   Overcast
5:55 AM 30.2 °F 22.6 °F 26.6 °F 86% 29.53 in 7.0 mi SSE 8.1 mph - N/A   Overcast
6:15 AM 30.2 °F 23.4 °F 26.6 °F 86% 29.53 in 7.0 mi SSE 6.9 mph - N/A   Overcast
6:35 AM 30.2 °F 24.3 °F 26.6 °F 86% 29.52 in 7.0 mi SSE 5.8 mph - N/A   Overcast
6:55 AM 30.2 °F 25.4 °F 26.6 °F 86% 29.52 in 1.8 mi SSE 4.6 mph - N/A   Overcast
7:15 AM 30.2 °F 22.6 °F 30.2 °F 100% 29.50 in 1.5 mi SSE 8.1 mph - N/A   Overcast
7:35 AM 30.2 °F 25.4 °F 30.2 °F 100% 29.50 in 1.8 mi SSE 4.6 mph - N/A   Overcast
8:35 AM 30.2 °F 23.4 °F 30.2 °F 100% 29.48 in 1.2 mi SSE 6.9 mph - N/A Snow Light Snow
8:55 AM 30.2 °F 23.4 °F 30.2 °F 100% 29.47 in 1.5 mi SSE 6.9 mph - N/A Snow Light Snow
9:15 AM 30.2 °F 23.4 °F 30.2 °F 100% 29.46 in 2.0 mi South 6.9 mph - N/A Snow Light Snow
9:35 AM 32.0 °F 24.8 °F 32.0 °F 100% 29.44 in 2.5 mi SSE 8.1 mph - N/A Snow Light Snow
9:55 AM 32.0 °F 25.6 °F 32.0 °F 100% 29.43 in 4.0 mi South 6.9 mph - N/A   Overcast
10:15 AM 32.0 °F 24.2 °F 32.0 °F 100% 29.42 in 4.0 mi South 9.2 mph - N/A Snow Light Snow
10:35 AM 32.0 °F 26.4 °F 32.0 °F 100% 29.42 in 1.5 mi South 5.8 mph - N/A Snow Light Snow
10:55 AM 32.0 °F 26.4 °F 32.0 °F 100% 29.41 in 3.0 mi South 5.8 mph - N/A   Overcast
11:15 AM 32.0 °F 26.4 °F 32.0 °F 100% 29.40 in 2.5 mi South 5.8 mph - N/A   Overcast
11:35 AM 32.0 °F 26.4 °F 32.0 °F 100% 29.40 in 0.8 mi SSW 5.8 mph - N/A Snow Light Snow
11:55 AM 32.0 °F 27.5 °F 32.0 °F 100% 29.39 in 0.5 mi South 4.6 mph - N/A Snow Light Snow
12:15 PM 32.0 °F 26.4 °F 32.0 °F 100% 29.38 in 0.8 mi South 5.8 mph - N/A Snow Light Snow
12:35 PM 32.0 °F 27.5 °F 32.0 °F 100% 29.37 in 1.2 mi SSW 4.6 mph - N/A Snow Light Snow
12:55 PM 32.0 °F 24.8 °F 32.0 °F 100% 29.36 in 1.2 mi SSW 8.1 mph - 0.01 in Snow Light Snow
1:15 PM 32.0 °F 25.6 °F 32.0 °F 100% 29.35 in 1.2 mi SSW 6.9 mph - 0.02 in Snow Light Snow
1:35 PM 32.0 °F 24.8 °F 32.0 °F 100% 29.35 in 1.0 mi SW 8.1 mph - 0.03 in Snow Light Snow
2:35 PM 32.0 °F 21.6 °F 32.0 °F 100% 29.35 in 7.0 mi WSW 15.0 mph 26.5 mph N/A   Overcast
2:55 PM 32.0 °F 21.6 °F 30.2 °F 93% 29.36 in 10.0 mi West 15.0 mph 20.7 mph N/A   Overcast
3:15 PM 32.0 °F 22.1 °F 26.6 °F 80% 29.36 in 10.0 mi West 13.8 mph 24.2 mph N/A   Overcast
3:35 PM 32.0 °F 23.6 °F 26.6 °F 80% 29.36 in 10.0 mi West 10.4 mph 18.4 mph N/A   Overcast
3:55 PM 32.0 °F 23.0 °F 26.6 °F 80% 29.36 in 10.0 mi WSW 11.5 mph - N/A   Overcast
4:15 PM 32.0 °F 23.0 °F 28.4 °F 87% 29.36 in 10.0 mi WSW 11.5 mph - N/A   Overcast
4:35 PM 32.0 °F 24.2 °F 28.4 °F 87% 29.36 in 10.0 mi WSW 9.2 mph - N/A   Overcast
4:55 PM 32.0 °F 23.6 °F 28.4 °F 87% 29.36 in 10.0 mi SW 10.4 mph - N/A   Overcast
5:15 PM 32.0 °F 23.6 °F 28.4 °F 87% 29.36 in 10.0 mi SW 10.4 mph - N/A   Overcast
5:35 PM 32.0 °F 23.0 °F 28.4 °F 87% 29.36 in 10.0 mi SW 11.5 mph 16.1 mph N/A   Overcast
6:15 PM 32.0 °F 22.1 °F 28.4 °F 87% 29.36 in 4.0 mi SW 13.8 mph 20.7 mph N/A Snow Light Snow
6:35 PM 32.0 °F 23.6 °F 32.0 °F 100% 29.36 in 3.0 mi SW 10.4 mph - N/A Snow Light Snow
6:55 PM 32.0 °F 21.2 °F 32.0 °F 100% 29.36 in 10.0 mi SW 16.1 mph 20.7 mph N/A   Overcast
7:35 PM 32.0 °F 21.2 °F 30.2 °F 93% 29.36 in 4.0 mi WSW 16.1 mph 31.1 mph N/A Snow Light Snow
7:55 PM 32.0 °F 20.1 °F 30.2 °F 93% 29.36 in 4.0 mi WSW 19.6 mph - N/A Snow Light Snow
8:15 PM 32.0 °F 20.8 °F 30.2 °F 93% 29.36 in 4.0 mi WSW 17.3 mph 24.2 mph N/A Snow Light Snow
8:35 PM 30.2 °F 17.1 °F 28.4 °F 93% 29.37 in 10.0 mi WSW 21.9 mph 25.3 mph N/A   Overcast
8:55 PM 30.2 °F 18.1 °F 28.4 °F 93% 29.37 in 7.0 mi WSW 18.4 mph 24.2 mph N/A Snow Light Snow
9:15 PM 30.2 °F 19.8 °F 30.2 °F 100% 29.37 in 3.0 mi WSW 13.8 mph 21.9 mph N/A Snow Light Snow
9:35 PM 30.2 °F 19.3 °F 28.4 °F 93% 29.36 in 5.0 mi WSW 15.0 mph 25.3 mph N/A Snow Light Snow
9:55 PM 30.2 °F 17.4 °F 28.4 °F 93% 29.36 in 10.0 mi WSW 20.7 mph 26.5 mph N/A   Overcast
10:15 PM 30.2 °F 19.8 °F 28.4 °F 93% 29.36 in 7.0 mi WSW 13.8 mph - N/A Snow Light Snow
10:35 PM 30.2 °F 18.9 °F 28.4 °F 93% 29.36 in 5.0 mi WSW 16.1 mph - N/A Snow Light Snow
10:55 PM 30.2 °F 18.5 °F 28.4 °F 93% 29.35 in 4.0 mi WSW 17.3 mph 23.0 mph N/A Snow Light Snow
11:35 PM 30.2 °F 19.3 °F 26.6 °F 86% 29.35 in 7.0 mi West 15.0 mph 31.1 mph N/A Snow Light Snow
11:55 PM 30.2 °F 18.9 °F 24.8 °F 80% 29.35 in 10.0 mi WSW 16.1 mph 23.0 mph N/A   Overcast